Weather History for KBFD - February, 2014

Change the Weather History Date:

Monday, February 10, 2014

  Actual Average Record
Temperature  
Mean Temperature 7 °F 23 °F  
Max Temperature 17 °F 31 °F 53 °F (2001)
Min Temperature -4 °F 14 °F -10 °F (1972)
Degree Days  
Heating Degree Days 58 37  
Month to date heating degree days 435 372  
Since 1 July heating degree days 4813 4783  
Cooling Degree Days 0 0  
Month to date cooling degree days 0 0  
Year to date cooling degree days 0 0  
Moisture  
Dew Point 2 °F    
Average Humidity 68    
Maximum Humidity 83    
Minimum Humidity 53    
Precipitation  
Precipitation T in 0.08 in 0.96 in (1959)
Month to date precipitation 0.59 0.84  
Year to date precipitation 2.53 4.13  
Sea Level Pressure  
Sea Level Pressure 30.11 in    
Wind  
Wind Speed 7 mph (WNW)    
Max Wind Speed 17 mph    
Max Gust Speed 25 mph    
Visibility 4 miles    
Events Snow    
T = Trace of Precipitation, MM = Missing Value Source: NWS Daily Summary

Daily Weather History Graph

Daily Weather History Graph

Search for Another Location

Airport or City:

Trip Planner

Search our weather history database for the weather conditions in past years. The results will help you decide how hot, cold, wet, or windy it might be!

Date:

Astronomy

Feb. 10, 2014 Rise Set
Actual Time 7:16 AM EST 5:41 PM EST
Civil Twilight 6:47 AM EST 6:10 PM EST
Nautical Twilight 6:15 AM EST 6:43 PM EST
Astronomical Twilight 5:42 AM EST 7:15 PM EST
Moon 2:07 PM EST (2/10) 4:09 AM EST (2/10)
Length of Visible Light 11h 22m
Length of Day
10h 24m
Waxing Gibbous, 84% of the Moon is Illuminated
Feb 10
Waxing Gibbous
Feb 14
Full
Feb 22
Last Quarter
Mar 1
New
Mar 8
First Quarter

Hourly Weather History & Observations

Time (EST) Temp. Windchill Dew Point Humidity Pressure Visibility Wind Dir Wind Speed Gust Speed Precip Events Conditions
12:53 AM 10.9 °F -3.4 °F 3.0 °F 70% 30.09 in 5.0 mi WNW 11.5 mph - 0.00 in Snow Light Snow
1:53 AM 10.0 °F -0.9 °F 3.9 °F 76% 30.09 in 2.5 mi NW 6.9 mph - 0.00 in Snow Light Snow
2:10 AM 10.0 °F -2.9 °F 3.9 °F 76% 29.99 in 3.0 mi NW 9.2 mph - 0.00 in Snow Light Snow
2:53 AM 9.0 °F -3.2 °F 1.9 °F 73% 30.11 in 7.0 mi West 8.1 mph - 0.00 in   Overcast
3:16 AM 8.1 °F -3.2 °F 1.9 °F 76% 29.99 in 5.0 mi WNW 6.9 mph - 0.00 in   Haze
3:53 AM 7.0 °F -1.7 °F 1.9 °F 80% 30.11 in 5.0 mi WNW 4.6 mph - 0.00 in   Haze
4:11 AM 5.0 °F -5.6 °F 1.0 °F 84% 30.00 in 6.0 mi NW 5.8 mph - N/A   Overcast
4:44 AM 6.1 °F -0.9 °F 1.9 °F 83% 30.01 in 7.0 mi WNW 3.5 mph - N/A   Overcast
4:53 AM 5.0 °F -2.1 °F -0.0 °F 80% 30.12 in 7.0 mi WNW 3.5 mph - N/A   Overcast
5:29 AM 1.0 °F - -5.1 °F 75% 30.01 in 9.0 mi Calm Calm - N/A   Scattered Clouds
5:53 AM -0.9 °F -8.9 °F -6.0 °F 79% 30.14 in 7.0 mi West 3.5 mph - N/A   Clear
6:53 AM -2.0 °F - -7.1 °F 79% 30.14 in 6.0 mi Calm Calm - N/A   Haze
7:06 AM -0.9 °F - -7.1 °F 75% 30.01 in 6.0 mi Calm Calm - N/A   Haze
7:18 AM -2.9 °F - -9.0 °F 75% 30.02 in 7.0 mi Calm Calm - N/A   Scattered Clouds
7:34 AM -2.9 °F - -9.0 °F 75% 30.03 in 6.0 mi Calm Calm - N/A   Haze
7:53 AM -4.0 °F - -9.0 °F 79% 30.18 in 8.0 mi Calm Calm - N/A   Mostly Cloudy
8:31 AM -0.9 °F - -6.0 °F 79% 30.06 in 4.0 mi Calm Calm - N/A   Haze
8:49 AM 8.6 °F -1.3 °F 1.4 °F 73% 30.07 in 2.5 mi West 5.8 mph - 0.00 in Snow Light Snow
8:53 AM 8.1 °F -2.0 °F 3.0 °F 80% 30.19 in 2.0 mi West 5.8 mph - 0.00 in Snow Light Snow
8:58 AM 9.0 °F -0.9 °F 3.0 °F 77% 30.07 in 1.8 mi West 5.8 mph - 0.00 in Snow Light Snow
9:38 AM 10.0 °F -1.9 °F 3.9 °F 76% 30.08 in 1.2 mi West 8.1 mph - 0.00 in Snow Light Snow
9:53 AM 10.0 °F -2.9 °F 3.9 °F 76% 30.20 in 1.5 mi West 9.2 mph - 0.00 in Snow Light Snow
10:09 AM 10.0 °F -1.9 °F 3.9 °F 76% 30.08 in 2.5 mi West 8.1 mph - 0.00 in Snow Light Snow
10:40 AM 10.0 °F 0.4 °F 3.9 °F 76% 30.09 in 1.8 mi WSW 5.8 mph - 0.00 in Snow Light Snow
10:43 AM 10.0 °F 0.4 °F 3.9 °F 76% 30.09 in 2.0 mi WSW 5.8 mph - 0.00 in Snow Light Snow
10:53 AM 10.9 °F 1.4 °F 3.9 °F 73% 30.21 in 2.0 mi West 5.8 mph - 0.00 in Snow Light Snow
11:22 AM 12.9 °F 2.6 °F 3.9 °F 67% 30.09 in 3.0 mi West 6.9 mph - 0.00 in Snow Light Snow
11:32 AM 14.0 °F 2.9 °F 3.9 °F 64% 30.09 in 2.5 mi West 8.1 mph - 0.00 in Snow Light Snow
11:42 AM 14.0 °F 5.1 °F 3.9 °F 64% 30.08 in 4.0 mi WNW 5.8 mph - 0.00 in Snow Light Snow
11:53 AM 14.0 °F 2.0 °F 5.0 °F 67% 30.19 in 3.0 mi WNW 9.2 mph - 0.00 in Snow Light Snow
12:02 PM 14.0 °F 3.9 °F 5.0 °F 67% 30.08 in 2.0 mi West 6.9 mph - 0.00 in Snow Light Snow
12:25 PM 15.1 °F 2.5 °F 5.0 °F 64% 30.07 in 4.0 mi WNW 10.4 mph - 0.00 in Snow Light Snow
12:53 PM 15.1 °F 1.8 °F 3.0 °F 59% 30.18 in 3.0 mi West 11.5 mph - 0.00 in Snow Light Snow
1:01 PM 15.1 °F 1.8 °F 3.9 °F 61% 30.07 in 2.0 mi West 11.5 mph - 0.00 in Snow Light Snow
1:08 PM 15.1 °F 4.2 °F 5.0 °F 64% 30.07 in 1.2 mi West 8.1 mph - 0.00 in Snow Light Snow
1:19 PM 15.1 °F 2.5 °F 6.1 °F 68% 30.06 in 4.0 mi West 10.4 mph - 0.00 in Snow Light Snow
1:27 PM 16.0 °F 4.4 °F 5.0 °F 62% 30.06 in 10.0 mi West 9.2 mph - 0.00 in   Overcast
1:53 PM 17.1 °F 6.6 °F 3.9 °F 56% 30.16 in 9.0 mi WNW 8.1 mph - 0.00 in   Overcast
2:01 PM 16.0 °F 4.4 °F 3.9 °F 59% 30.05 in 2.5 mi WNW 9.2 mph - 0.00 in Snow Light Snow
2:06 PM 15.1 °F -0.1 °F 6.1 °F 68% 30.05 in 0.8 mi WNW 15.0 mph - 0.00 in Snow Light Snow
2:19 PM 16.0 °F 4.4 °F 3.9 °F 59% 30.05 in 2.5 mi NW 9.2 mph - 0.00 in Snow Light Snow
2:26 PM 16.0 °F 2.9 °F 3.0 °F 57% 30.05 in 9.0 mi WNW 11.5 mph 19.6 mph 0.00 in   Mostly Cloudy
2:35 PM 15.1 °F -0.1 °F 5.0 °F 64% 30.06 in 1.8 mi WNW 15.0 mph - 0.00 in Snow Light Snow
2:45 PM 15.1 °F 4.2 °F 5.0 °F 64% 30.06 in 0.8 mi WNW 8.1 mph 20.7 mph 0.00 in Snow Light Snow
2:49 PM 15.8 °F 5.1 °F 3.2 °F 58% 30.05 in 2.0 mi West 8.1 mph - 0.00 in Snow Light Snow
2:53 PM 15.1 °F 3.3 °F 3.9 °F 61% 30.17 in 5.0 mi West 9.2 mph - 0.00 in   Haze
3:02 PM 15.1 °F 1.1 °F 6.1 °F 68% 30.06 in 1.8 mi NW 12.7 mph - 0.00 in Snow Light Snow
3:10 PM 15.1 °F 2.5 °F 7.0 °F 70% 30.07 in 0.5 mi NW 10.4 mph - 0.00 in Snow Snow
3:16 PM 15.1 °F 3.3 °F 6.1 °F 68% 30.07 in 2.0 mi WNW 9.2 mph - 0.00 in Snow Light Snow
3:23 PM 15.1 °F 0.5 °F 3.9 °F 61% 30.07 in 7.0 mi NW 13.8 mph - 0.00 in   Overcast
3:37 PM 15.1 °F 2.5 °F 3.9 °F 61% 30.07 in 5.0 mi WNW 10.4 mph - 0.00 in Snow Light Snow
3:53 PM 15.1 °F 1.8 °F 1.9 °F 56% 30.20 in 10.0 mi WNW 11.5 mph - 0.00 in   Overcast
4:47 PM 12.2 °F -0.2 °F 3.2 °F 67% 30.09 in 2.5 mi WNW 9.2 mph - 0.00 in Snow Light Snow
4:48 PM 12.9 °F -0.9 °F 3.9 °F 67% 30.22 in 2.0 mi WNW 11.5 mph - 0.00 in Snow Light Snow
4:56 PM 12.9 °F 0.7 °F 5.0 °F 71% 30.09 in 1.5 mi WNW 9.2 mph - 0.00 in Snow Light Snow
5:04 PM 14.0 °F 2.9 °F 3.9 °F 64% 30.09 in 3.0 mi WNW 8.1 mph - 0.00 in Snow Light Snow
5:13 PM 12.9 °F -0.9 °F 3.0 °F 65% 30.10 in 7.0 mi WNW 11.5 mph - 0.00 in   Overcast
5:43 PM 12.0 °F -0.4 °F 3.9 °F 70% 30.11 in 3.0 mi NW 9.2 mph - 0.00 in Snow Light Snow
5:51 PM 12.2 °F -0.2 °F 3.2 °F 67% 30.12 in 4.0 mi NW 9.2 mph - 0.00 in Snow Light Snow
5:53 PM 12.0 °F -1.3 °F 3.9 °F 70% 30.26 in 4.0 mi NW 10.4 mph - 0.00 in Snow Light Snow
6:53 PM 10.9 °F 0.2 °F 3.0 °F 70% 30.27 in 10.0 mi WNW 6.9 mph - 0.00 in   Overcast
7:53 PM 9.0 °F -0.9 °F 1.9 °F 73% 30.29 in 10.0 mi WNW 5.8 mph - 0.00 in   Mostly Cloudy
8:30 PM 8.1 °F -0.5 °F 1.9 °F 76% 30.14 in 9.0 mi WNW 4.6 mph - N/A   Mostly Cloudy
8:37 PM 7.0 °F -1.7 °F 1.9 °F 80% 30.15 in 10.0 mi WNW 4.6 mph - N/A   Mostly Cloudy
8:53 PM 6.1 °F -0.9 °F 1.0 °F 80% 30.29 in 10.0 mi WNW 3.5 mph - N/A   Mostly Cloudy
9:43 PM 8.1 °F -0.5 °F 1.9 °F 76% 30.16 in 7.0 mi NW 4.6 mph - 0.00 in   Overcast
9:53 PM 8.1 °F -0.5 °F 1.9 °F 76% 30.29 in 7.0 mi WNW 4.6 mph - 0.00 in   Overcast
10:30 PM 9.0 °F -0.9 °F 1.9 °F 73% 30.17 in 2.0 mi WNW 5.8 mph - 0.00 in Snow Light Snow
10:41 PM 9.0 °F -0.9 °F 1.9 °F 73% 30.17 in 4.0 mi WNW 5.8 mph - 0.00 in Snow Light Snow
10:53 PM 8.1 °F -3.2 °F 1.9 °F 76% 30.30 in 4.0 mi WNW 6.9 mph - 0.00 in Snow Light Snow
11:42 PM 6.1 °F -2.8 °F 1.0 °F 80% 30.17 in 5.0 mi WNW 4.6 mph - 0.00 in   Haze
11:53 PM 6.1 °F -4.3 °F 1.0 °F 80% 30.30 in 5.0 mi West 5.8 mph - 0.00 in   Haze